Powrót do katalogu

BREEZE-M DEB

TANK

AktywnyHEO
NORAD 33279·DEBRIS·🇷🇺 Russia

Wystrzelony Aug 18, 2008 z Baikonur Cosmodrome

Loading…

Następne Przeloty (najbliższe 24 godziny)

TLE

ŚwieżeSource: Space-Track

Epoka: Sep 14, 2026, 12:00 UTC

1 33279U 08039B   26257.50047477  .00000134  00000-0  18445-3 0  9993
2 33279  46.0196 303.3185 4829277  76.6104 331.2245  5.74704574375848

Śledź BREEZE-M DEB w czasie rzeczywistym z AllMySat

Download on the App Store